Content
SEND FEEDBACK

Daily
Averages
Monthly
Summary
India

CHENNAI, INDIA


Home > Asia > India
Elevation: 52 feet     Latitude: 13 00N     Longitude: 080 11E

WEATHER
 
SELECT A DAY
Number of Records: 202,713;   Date Range: 7/1/96 - 7/23/14
 
SHARE

PRINT THIS DATA

[ ← Previous Day ]
WEATHER ALMANAC - JANUARY 3, 2013
[ Next Day → ]
[ °C ]   °F
Weather ElementAverageHighLow
Temperature78.4 °F87.8 °F (1:10 pm)71.6 °F (6:40 am)
Dewpoint71.8 °F73.4 °F (12:40 am)69 °F (11:30 am)
Humidity80.7 %100 % (6:40 am)50 % (2:30 pm)
Barometer29.90 in29.99 in (8:30 am)29.83 in (2:40 pm)
Wind Speed3 mph9.2 mph (5:10 pm)
Weather ElementAverage
Visibility2.5 mi
Wind DirectionNE (40 °)

Weather ElementTotal
Precipitation---
Cooling Degree Days14.7 (Base 65)
Growing Degree Days29.7 (Base 50)
Averaged from 52 records on January 3, 2013
WEATHER CONDITIONS BREAKOUT
WIND DIRECTION BREAKOUT
WEATHER BY HOUR - JANUARY 3, 2013
[ °C ]   °F
Local TimeTemperatureDewpointHumidityBarometerVisibilityWind DirectionWind SpeedGust SpeedPrecipitationEventsConditions
12:40 AM75.2 °F73.4 °F94 %29.92 in1.2 miCalmPartly Cloudy
1:10 AM75.2 °F73.4 °F94 %29.92 in1.2 miCalmPartly Cloudy
1:40 AM73.4 °F71.6 °F94 %29.89 in1.2 miCalmPartly Cloudy
2:10 AM73.4 °F71.6 °F94 %29.89 in1.2 miCalmPartly Cloudy
2:30 AM75.0 °F71.0 °F85 %29.92 in2.0 miCalmScattered Clouds
2:40 AM73.4 °F71.6 °F94 %29.89 in1.2 miCalmPartly Cloudy
3:10 AM73.4 °F71.6 °F94 %29.86 in1.2 miCalmPartly Cloudy
3:40 AM73.4 °F71.6 °F94 %29.86 in1.2 miCalmPartly Cloudy
4:10 AM73.4 °F71.6 °F94 %29.86 in1.1 miCalmPartly Cloudy
4:40 AM73.4 °F71.6 °F94 %29.89 in1.1 miCalmPartly Cloudy
5:10 AM73.4 °F71.6 °F94 %29.89 in1.1 miCalmPartly Cloudy
5:30 AM74.0 °F71.0 °F88 %29.92 in2.0 miCalmHaze
5:40 AM73.4 °F71.6 °F94 %29.89 in1.0 miCalmPartly Cloudy
6:40 AM71.6 °F71.6 °F100 %29.92 in0.6 miCalmFogShallow Fog
7:10 AM73.4 °F71.6 °F94 %29.92 in0.6 miCalmFogShallow Fog
7:40 AM73.4 °F71.6 °F94 %29.95 in0.7 miCalmFogShallow Fog
8:10 AM73.4 °F73.4 °F100 %29.95 in0.7 miCalmFogShallow Fog
8:30 AM76.0 °F72.0 °F85 %29.99 in2.0 miCalmHaze
8:40 AM75.2 °F73.4 °F94 %29.95 in0.7 miCalmFogShallow Fog
9:10 AM77.0 °F73.4 °F89 %29.95 in0.9 miCalmFogShallow Fog
9:40 AM78.8 °F73.4 °F83 %29.95 in1.6 miCalmScattered Clouds
10:40 AM82.4 °F71.6 °F70 %29.95 in2.5 miNNE (30°)4.6 mphHaze
11:30 AM84.0 °F69.0 °F52 %29.96 in6.0 miEast (90°)2.3 mphPartly Cloudy
11:40 AM84.2 °F71.6 °F66 %29.92 in3.7 miENE (60°)5.8 mphScattered Clouds
12:10 PM86.0 °F71.6 °F62 %29.92 in3.7 miEast (90°)5.8 mphScattered Clouds
12:40 PM86.0 °F69.8 °F58 %29.89 in4.3 miCalmScattered Clouds
1:10 PM87.8 °F71.6 °F58 %29.86 in4.3 miENE (70°)5.8 mphScattered Clouds
1:40 PM87.8 °F71.6 °F58 %29.86 in4.3 miEast (100°)8.1 mphPartly Cloudy
2:10 PM87.8 °F71.6 °F58 %29.86 in4.3 miEast (90°)6.9 mphPartly Cloudy
2:30 PM87.0 °F71.0 °F50 %29.88 in6.0 miSE (140°)3.5 mphClear
2:40 PM87.8 °F71.6 °F58 %29.83 in4.3 miEast (80°)8.1 mphPartly Cloudy
3:10 PM86.0 °F71.6 °F62 %29.83 in4.3 miENE (70°)3.5 mphPartly Cloudy
3:40 PM84.2 °F71.6 °F66 %29.83 in4.3 miEast (80°)6.9 mphPartly Cloudy
4:10 PM84.2 °F71.6 °F66 %29.83 in4.3 miENE (60°)8.1 mphPartly Cloudy
4:40 PM82.4 °F71.6 °F70 %29.83 in3.7 miEast (90°)6.9 mphPartly Cloudy
5:10 PM80.6 °F71.6 °F74 %29.83 in3.7 miENE (70°)9.2 mphPartly Cloudy
5:30 PM82.0 °F72.0 °F66 %29.88 in6.0 miCalmScattered Clouds
5:40 PM80.6 °F71.6 °F74 %29.86 in3.7 miNE (50°)6.9 mphPartly Cloudy
6:10 PM78.8 °F71.6 °F78 %29.86 in2.5 miENE (60°)5.8 mphHaze
6:40 PM77.0 °F71.6 °F83 %29.89 in2.5 miENE (70°)5.8 mphHaze
7:10 PM77.0 °F71.6 °F83 %29.89 in2.5 miNE (50°)6.9 mphHaze
7:40 PM77.0 °F71.6 °F83 %29.92 in2.5 miNE (50°)5.8 mphHaze
8:10 PM77.0 °F71.6 °F83 %29.92 in2.5 miENE (60°)4.6 mphHaze
8:30 PM78.0 °F73.0 °F79 %29.96 in2.0 miNE (50°)2.3 mphScattered Clouds
8:40 PM77.0 °F71.6 °F83 %29.92 in2.5 miNE (50°)5.8 mphHaze
9:10 PM77.0 °F71.6 °F83 %29.95 in2.5 miENE (60°)6.9 mphHaze
9:40 PM77.0 °F71.6 °F83 %29.95 in2.5 miNE (40°)5.8 mphHaze
10:10 PM77.0 °F73.4 °F89 %29.95 in2.5 miENE (60°)3.5 mphHaze
10:40 PM77.0 °F73.4 °F89 %29.92 in2.5 miENE (70°)4.6 mphHaze
11:10 PM75.2 °F71.6 °F89 %29.92 in2.5 miENE (60°)4.6 mphHaze
11:30 PM76.0 °F72.0 °F86 %29.95 in2.0 miENE (70°)2.3 mphScattered Clouds
11:40 PM75.2 °F71.6 °F89 %29.92 in2.5 miCalmHaze
Hourly data recorded from VOMM, located miles away from Chennai, India







STORIES FROM OUR PARTNERS